Regional Weather Roundup
Issued by NWS

Home | Current Version | Previous Version | Graphics & Text | Print | Product List | Glossary On
Versions: 1 2 3 4 5 6 7 8 9 10 11 12 13 14 15 16 17 18 19 20 21 22 23 24 25 26 27
000
ASUS45 KPSR 280210
RWRAZ

ARIZONA HOURLY REGIONAL WEATHER ROUNDUP
NATIONAL WEATHER SERVICE PHOENIX AZ
700 PM MST THU APR 27 2017

NOTE: FAIR INDICATES FEW OR NO CLOUDS BELOW 12,000 FEET WITH NO
SIGNIFICANT WEATHER AND/OR OBSTRUCTIONS TO VISIBILITY.

AZZ001>003-036-280300-
NORTHWEST ARIZONA

CITY           SKY/WX    TMP DP  RH WIND       PRES   REMARKS
BULLHEAD CITY  PTCLDY    90  23   9 CALM      29.54S
KINGMAN        CLEAR     74  26  16 W8        29.69F
$$

AZZ004>008-015-016-018-280300-
NORTH CENTRAL ARIZONA

CITY           SKY/WX    TMP DP  RH WIND       PRES   REMARKS
GRAND CANYON   PTCLDY    55  24  30 W10       29.80R
WILLIAMS       PTCLDY    55  19  24 W20G26    29.84R
PRESCOTT       PTCLDY    67  21  17 W17G23    29.77S
FLAGSTAFF      PTCLDY    54  18  24 W20G31    29.81R
PAYSON         MOCLDY    66  32  28 SW10      29.78S
PAGE           MOCLDY    67  22  18 W10G26    29.65R
$$

AZZ009>014-017-280300-
NORTHEAST ARIZONA

CITY           SKY/WX    TMP DP  RH WIND       PRES   REMARKS
WINSLOW        PTCLDY    68  17  14 W28G35    29.69R
SAINT JOHNS    MOCLDY    64  31  28 W30G40    29.70R
WINDOW ROCK    PTCLDY    57  20  23 W15G22    29.71R
SHOW LOW       MOCLDY    55  28  35 S9        29.82R
$$

AZZ540-542>544-546-548-280300-
GREATER PHOENIX AREA

CITY           SKY/WX    TMP DP  RH WIND       PRES   REMARKS
PHOENIX        CLOUDY    87  38  17 W14       29.54F
BUCKEYE        CLOUDY    86  30  13 W12       29.57R
GLENDALE       MOCLDY    90  32  12 SW14      29.57S
LUKE AFB       CLOUDY    87  34  15 W16       29.55R
DEER VALLEY    CLOUDY    86  30  13 NW12G18   29.56S
SCOTTSDALE     CLOUDY    86  35  16 SW12      29.58S
MESA-GATEWAY   MOCLDY    84  39  20 SW10G18   29.59F
CHANDLER       CLEAR     86  37  17 SW14      29.57F
$$

AZZ539-553-280300-
SOUTHWEST MARICOPA COUNTY AND PINAL COUNTY

CITY           SKY/WX    TMP DP  RH WIND       PRES   REMARKS
CASA GRANDE    CLOUDY    85  38  18 W10       29.60S
GILA BEND      MOCLDY    88  33  14 SW14      29.56S
$$

AZZ503-504-507>509-280300-
SOUTHEAST ARIZONA

CITY           SKY/WX    TMP DP  RH WIND       PRES   REMARKS
TUCSON         CLOUDY    84  32  15 W15G22    29.68R
DAVIS-MONTHAN  CLOUDY    83  33  17 W13       29.67R
RYAN FIELD     CLEAR     84  34  16 W14G20    29.67R
NOGALES        MOCLDY    76  35  22 SW13      29.76F
SIERRA VISTA   PTCLDY    73  32  22 W14G21    29.80S
DOUGLAS        PTCLDY    77  36  22 W18       29.75S
SAFFORD        CLOUDY    79  35  20 NW16G26   29.62R
$$

AZZ532-280300-
SOUTHWEST ARIZONA

CITY           SKY/WX    TMP DP  RH WIND       PRES   REMARKS
YUMA           CLOUDY    88  44  21 W8        29.56S
$$

CAZ041-043-047-048-061-525>527-560>570-280300-
SOUTHERN CALIFORNIA

CITY           SKY/WX    TMP DP  RH WIND       PRES   REMARKS
DOWNTOWN L.A.  PTCLDY    82  33  17 NW9G23    29.71S
L.A. AIRPORT   MOCLDY    65  53  65 W13       29.73F
SAN DIEGO      MOCLDY    66  58  75 VRB3      29.79S
BURBANK        PTCLDY    77  31  18 NW21G35   29.72F
ONTARIO        MOCLDY    73  49  42 SW8       29.72F
RIVERSIDE      PTCLDY    74  48  39 W6        29.72F
PALM SPRINGS   PTCLDY    85  45  24 NW17G31   29.58F
EL CENTRO NAS  CLOUDY    86  46  24 W20G26    29.58R
IMPERIAL       CLOUDY    84  52  33 W17       29.55R
BLYTHE         CLEAR     91  31  11 W7        29.55F
NEEDLES        CLEAR     90  26  10 SE3       29.55F
$$

NVZ020-UTZ003-280300-
SOUTHERN NEVADA-UTAH

CITY           SKY/WX    TMP DP  RH WIND       PRES   REMARKS
LAS VEGAS      MOCLDY    81  15   8 NW17G23   29.61F
SALT LAKE CITY MOCLDY    49  23  36 NW14      29.82F
$$

NMZ009-TXZ055-280300-
NEW MEXICO-WEST TEXAS

CITY           SKY/WX    TMP DP  RH WIND       PRES   REMARKS
ALBUQUERQUE    MOCLDY    61  32  33 N12       29.63R
EL PASO        MOCLDY    84  25  11 W23G47    29.58R
$$


........................KEY........................
SKY/WX - SKY CONDITION/WEATHER
TMP    - TEMPERATURE IN FAHRENHEIT
DP     - DEW POINT IN FAHRENHEIT
RH     - RELATIVE HUMIDITY IN PERCENT
WIND   - DIRECTION AND SPEED IN MILES PER HOUR (MPH)
VRB    - VARIABLE WIND DIRECTION
PRES   - MEAN SEA LEVEL PRESSURE IN INCHES OF MERCURY
         F - FALLING PRESSURE   R - RISING PRESSURE
         S - STEADY PRESSURE
VSB    - VISIBILITY IN MILES
HX     - HEAT INDEX IN FAHRENHEIT
WCI    - WIND CHILL INDEX IN FAHRENHEIT
TC     - TEMPERATURE IN CELSIUS WHICH IS ALSO KNOWN AS
         TEMPERATURE IN CENTIGRADE
AFB    - AIR FORCE BASE
         LUKE AFB IS LUKE AIR FORCE BASE
         DAVIS-MONTHAN IS DAVIS-MONTHAN AIR FORCE BASE
NAS    - NAVAL AIR STATION
         EL CENTRO NAS IS EL CENTRO NAVAL AIR STATION
N/A    - NOT AVAILABLE





USA.gov is the U.S. government's official web portal to all federal, state and local government web resources and services.